This is the latest recevied weather packets stored in our database for station/object AB1AU. If no packets are shown the sender has not sent any weather packets the latest 10 day(s).
| Time | Temp. | Humidity | Pressure | Rain* | Wind** | Luminosity | Snow |
|---|---|---|---|---|---|---|---|
| 1777830728 | 7.22° C | 87% | 1005.5 hPa | 0 mm | - | 138 W/m² | - |
| 1777830423 | 7.22° C | 88% | 1005.6 hPa | 0 mm | - | 177 W/m² | - |
| 1777830121 | 6.67° C | 87% | 1005.5 hPa | 0 mm | - | 174 W/m² | - |
| 1777829816 | 6.67° C | 88% | 1005.3 hPa | 0 mm | - | 177 W/m² | - |
| 1777829512 | 6.67° C | 89% | 1005.5 hPa | 0 mm | - | 187 W/m² | - |
| 1777829210 | 6.67° C | 89% | 1005.5 hPa | 1.78 mm | - | 173 W/m² | - |
| 1777828907 | 6.67° C | 90% | 1005.6 hPa | 1.78 mm | - | 147 W/m² | - |
| 1777828603 | 6.67° C | 89% | 1005.7 hPa | 0 mm | - | 171 W/m² | - |
| 1777828301 | 6.67° C | 90% | 1005.6 hPa | 0 mm | - | 189 W/m² | - |
| 1777827998 | 6.67° C | 90% | 1005.6 hPa | 0 mm | - | 201 W/m² | - |
| 1777827694 | 6.67° C | 91% | 1005.6 hPa | 0 mm | - | 215 W/m² | - |
| 1777827391 | 6.11° C | 91% | 1005.8 hPa | 0 mm | - | 217 W/m² | - |
| 1777827087 | 6.11° C | 92% | 1005.6 hPa | 1.27 mm | - | 194 W/m² | - |
| 1777826784 | 6.11° C | 92% | 1005.6 hPa | 1.27 mm | - | 153 W/m² | - |
| 1777826481 | 6.11° C | 92% | 1005.8 hPa | 0 mm | - | 118 W/m² | - |
| 1777826178 | 6.11° C | 92% | 1005.6 hPa | 0 mm | - | 125 W/m² | - |
| 1777825876 | 6.11° C | 92% | 1005.6 hPa | 1.78 mm | - | 122 W/m² | - |
| 1777825573 | 5.56° C | 93% | 1005.8 hPa | 1.78 mm | - | 125 W/m² | - |
| 1777825271 | 5.56° C | 92% | 1005.8 hPa | 0 mm | - | 124 W/m² | - |
| 1777824967 | 5.56° C | 93% | 1005.9 hPa | 1.27 mm | - | 110 W/m² | - |
| 1777824663 | 5.56° C | 93% | 1006.1 hPa | 1.27 mm | - | 110 W/m² | - |
| 1777824361 | 5.56° C | 93% | 1006 hPa | 1.78 mm | - | 94 W/m² | - |
| 1777824056 | 5.56° C | 93% | 1006.3 hPa | 1.78 mm | - | 75 W/m² | - |
| 1777823752 | 5.56° C | 93% | 1006.1 hPa | 0 mm | - | 97 W/m² | - |
| 1777823450 | 5.56° C | 93% | 1006.2 hPa | 0 mm | - | 90 W/m² | - |
* Rain latest hour (hover to see other rain measurements)
** Current wind speed in m/s (hover to see current wind gust speed)